AirNav   Everest Fuels
 
 902 users online  

KGPM Grand Prairie Municipal Airport
Grand Prairie, Texas, USA

GOING TO GRAND PRAIRIE?


FAA INFORMATION EFFECTIVE 16 JULY 2020

Location

FAA Identifier: GPM
Lat/Long: 32-41-55.6000N 097-02-48.9000W
32-41.926667N 097-02.815000W
32.6987778,-97.0469167
(estimated)
Elevation: 588.4 ft. / 179.3 m (surveyed)
Variation: 06E (2000)
From city: 4 miles SW of GRAND PRAIRIE, TX
Time zone: UTC -5 (UTC -6 during Standard Time)
Zip code: 75052

Airport Operations

Airport use: Open to the public
Activation date: 06/1968
Control tower: yes
ARTCC: FORT WORTH CENTER
FSS: FORT WORTH FLIGHT SERVICE STATION
NOTAMs facility: GPM (NOTAM-D service available)
Attendance: MARCH-OCTOBER MON-SAT 0700-2100, NOVEMBER-FEBRUARY MON-SAT 0800-1800, ALL SUN 0800-1800
Pattern altitude: 1200.4 ft. MSL
TPA: 812 FT AGL FIXED WING, 612 FT AGL ROTARY WING.
Wind indicator: lighted
Segmented circle: yes
Lights: MIRL RWY 17/35 PRESET LOW INTST; TO INCR INTST & ACTVT REIL RWY 35 AFT ATCT CLOSED - CTAF. VASI RWYS 17 & 35 OPRS CONSLY.
Beacon: white-green (lighted land airport)
Operates sunset to sunrise.

Airport Communications

CTAF: 128.55
UNICOM: 123.075
WX AWOS-3P: 118.475 (972-606-1433)
GRAND PRAIRIE GROUND: 121.15 [0700-2100 DALGT TIME; 0800-1800 STANDARD TIME]
GRAND PRAIRIE TOWER: 128.55 [0700-2100 DALGT TIME; 0800-1800 STANDARD TIME]
REGIONAL APPROACH: 135.975
REGIONAL DEPARTURE: 135.975
DODJE STAR: 125.2 125.9
JOE POOL DP: 135.975
KNEAD STAR: 135.975
LIKES STAR: 125.8 ;SOUTH 135.975 ;NORTH
MOTZA STAR: 118.1 ;SOUTH 125.8 ;NORTH
REEKO STAR: 125.2
SANGR STAR: 124.3
SASIE STAR: 124.3
SLUGG STAR: 125.8 ;SOUTH 135.975 ;NORTH
SWVAY STAR: 135.975
WESAT STAR: 118.1 ;SOUTH 125.8 ;NORTH
WX ASOS at GKY (3 nm SW): 127.375 (817-557-0251)
WX ASOS at RBD (9 nm E): PHONE 214-330-5317
WX ASOS at DFW (12 nm N): PHONE 972-615-2608
WX AWOS-3 at 49T (13 nm E): 135.425 (214-670-1243)
WX ASOS at DAL (13 nm NE): PHONE 214-353-1551
WX AWOS-3 at FWS (15 nm SW): 120.025 (817-426-4172)
WX AWOS-3 at JWY (16 nm SE): 119.575 (972-937-4747)
WX ASOS at FTW (17 nm NW): PHONE 817-740-3346
WX AWOS-3 at LNC (18 nm SE): 118.975 (972-227-0471)
WX AWOS-3 at ADS (19 nm NE): PHONE 972-386-4855

Nearby radio navigation aids

VOR radial/distance  VOR name  Freq  Var
TTTr176/10.2MAVERICK VOR/DME113.1006E
FUZr144/13.2RANGER VORTAC115.7006E
CVEr206/13.6COWBOY VOR/DME116.2006E

 
NDB name  Hdg/Dist  Freq  Var  ID
MESQUITE253/27.024803EPQF .--. --.- ..-.

Airport Services

Fuel available: 100LL JET-A
Parking: hangars and tiedowns
Airframe service: MAJOR
Powerplant service: MAJOR
Bottled oxygen: NONE
Bulk oxygen: HIGH/LOW

Runway Information

Runway 17/35

Dimensions: 4001 x 75 ft. / 1220 x 23 m
Surface: concrete, in good condition
Weight bearing capacity: 
Single wheel: 30.0
Runway edge lights: medium intensity
RUNWAY 17  RUNWAY 35
Latitude: 32-42.256870N32-41.597050N
Longitude: 097-02.812673W097-02.817323W
Elevation: 581.5 ft.572.8 ft.
Traffic pattern: leftright
Runway heading: 174 magnetic, 180 true354 magnetic, 000 true
Markings: nonprecision, in good conditionnonprecision, in good condition
Visual slope indicator: 4-box VASI on left (3.00 degrees glide path)4-box VASI on left (4.00 degrees glide path)
Runway end identifier lights: yes
Touchdown point: yes, no lightsyes, no lights
Obstructions: 40 ft. trees, 1040 ft. from runway, 225 ft. right of centerline, 21:1 slope to clear21 ft. road, 630 ft. from runway, 20:1 slope to clear

Airport Ownership and Management from official FAA records

Ownership: Publicly-owned
Owner: CITY OF GRAND PRAIRIE
PO BOX 534045
GRAND PRAIRIE, TX 75053-4045
Phone 972-237-8015
Manager: MARK DIVITA
3116 S GT SOUTHWEST PKWY
GRAND PRAIRIE, TX 75052-7238
Phone (972) 237-7591

Airport Operational Statistics

Aircraft based on the field: 191
Single engine airplanes: 178
Multi engine airplanes: 11
Jet airplanes: 1
Helicopters: 1
    
Aircraft operations: avg 180/day *
49% local general aviation
33% transient general aviation
18% military
<1% air taxi
* for 12-month period ending 31 December 2015

Additional Remarks

EXTSV HEL TFC WEST SIDE OF ARPT.
FOR CD WHEN ATCT IS CLSD CTC REGIONAL APCH AT 972-615-2799.
WEST GRASS FOR ROTARY WING USE ONLY.

Instrument Procedures

NOTE: All procedures below are presented as PDF files. If you need a reader for these files, you should download the free Adobe Reader.

NOT FOR NAVIGATION. Please procure official charts for flight.
FAA instrument procedures published for use from 16 July 2020 at 0901Z to 13 August 2020 at 0900Z.

 
STARs - Standard Terminal Arrivals
DODJE SIX **CHANGED**   2 pages: [1] [2] (786KB)
MOTZA NINE **CHANGED**   2 pages: [1] [2] (546KB)
REEKO THREE (RNAV) **CHANGED**   download (226KB)
SASIE SIX **CHANGED**   2 pages: [1] [2] (533KB)
SWVAY FOUR (RNAV) **CHANGED**   download (256KB)
TRUUK TWO (RNAV) **CHANGED**   download (225KB)
WESAT TWO (RNAV) **CHANGED**   download (218KB)
 
IAPs - Instrument Approach Procedures
RNAV (GPS) RWY 35   download (186KB)
VOR/DME RWY 35 **CHANGED**   download (206KB)
NOTE: Special Alternate Minimums apply   download (17KB)
 
Departure Procedures
DALLAS SIX   2 pages: [1] [2] (406KB)
GARLAND EIGHT   2 pages: [1] [2] (373KB)
JOE POOL ONE   2 pages: [1] [2] (567KB)
KINGDOM SEVEN   2 pages: [1] [2] (399KB)
KUSSO SIX (RNAV)   2 pages: [1] [2] (346KB)
SWABR SIX (RNAV)   2 pages: [1] [2] (348KB)
TEXOMA EIGHT   2 pages: [1] [2] (508KB)
WORTH FOUR   2 pages: [1] [2] (440KB)
NOTE: Special Take-Off Minimums/Departure Procedures apply   download

Other nearby airports with instrument procedures:

KGKY - Arlington Municipal Airport (3 nm SW)
KRBD - Dallas Executive Airport (9 nm E)
KDFW - Dallas-Fort Worth International Airport (12 nm N)
KDAL - Dallas Love Field Airport (13 nm NE)
KFWS - Fort Worth Spinks Airport (15 nm SW)
KJWY - Mid-Way Regional Airport (16 nm SE)
KFTW - Fort Worth Meacham International Airport (17 nm NW)
KLNC - Lancaster Regional Airport (18 nm SE)
KADS - Addison Airport (19 nm NE)
 
Loc | Ops | Rwys | IFR | FBO | Links
Com | Nav | Svcs | Stats | Notes

City of Fort Worth
 
Area around KGPM (Grand Prairie Municipal Airport)
 
Road maps at: MapQuest Bing Google
 
Aerial photo
WARNING: Photo may not be current or correct
Aerial photo of KGPM (Grand Prairie Municipal Airport)
Photo taken 16-Nov-2018
looking north-northeast.

Do you have a better or more recent aerial photo of Grand Prairie Municipal Airport that you would like to share? If so, please send us your photo.

 
Sectional chart

 
Airport diagram
CAUTION: Diagram may not be current
Diagram of KGPM (Grand Prairie Municipal Airport)
Download PDF
of official airport diagram from the FAA

 
Airport distance calculator
Flying to Grand Prairie Municipal Airport? Find the distance to fly.

From to KGPM

Sunrise and sunset
Times for 04-Aug-2020
 Local
(UTC-5)
 Zulu
(UTC)
Morning civil twilight06:1911:19
Sunrise06:4611:46
Sunset20:2201:22
Evening civil twilight20:4901:49

Current date and time
Zulu (UTC)  05-Aug-2020 02:42:10
Local (UTC-5)  04-Aug-2020 21:42:10
 
METAR
KGPM 050215Z AUTO 08006KT 10SM CLR 30/16 A2998 RMK AO2 T03030159
KGKY 
3nm SW 
050153Z AUTO 09006KT 10SM CLR 33/17 A2996 RMK AO2 SLP133 T03280172
KRBD 
9nm E 
050153Z 09007KT 10SM 31/17 A2996 RMK AO2 SLP136 T03110172 $
KDFW 
12nm N 
050153Z 09006KT 10SM FEW180 30/17 A2995 RMK AO2 SLP131 T03000172
KDAL 
13nm NE 
050153Z 08008KT 10SM FEW110 FEW250 32/12 A2996 RMK AO2 SLP136 T03170122
KFWS 
15nm SW 
050215Z AUTO 10005KT 10SM CLR 29/18 A2997 RMK AO2 T02940177 PWINO
KJWY 
16nm SE 
050215Z AUTO 00000KT 10SM CLR 28/19 A2998 RMK AO2 T02750193
KFTW 
18nm NW 
050053Z 10008KT 10SM CLR 32/17 A2994 RMK AO2 SLP130 T03220167
KLNC 
18nm SE 
050215Z AUTO 07005KT 10SM CLR 29/18 A2998 RMK AO2 T02850181
KADS 
20nm NE 
050147Z 08007KT 13SM SKC 31/14 A2998
TAF
KGKY 
3nm SW 
042056Z 0421/0518 09006KT P6SM FEW100 SCT180 SCT250 FM051500 11007KT P6SM VCSH SCT100
KDFW 
12nm N 
042056Z 0421/0524 08006KT P6SM FEW100 SCT180 BKN250 FM051200 09009KT P6SM VCTS BKN100CB
KDAL 
13nm NE 
042056Z 0421/0518 09006KT P6SM FEW100 SCT180 BKN250 FM051200 10009KT P6SM VCTS BKN100CB
KFTW 
18nm NW 
042056Z 0421/0518 10007KT P6SM FEW100 SCT180 SCT250 FM051500 11008KT P6SM VCSH SCT100
NOTAMs
Click for the latest NOTAMs
NOTAMs are issued by the DoD/FAA and will open in a separate window not controlled by AirNav.

 

 
 

FBO, Fuel Providers, and Aircraft Ground Support

  
 Business Name 
 
 Contact 
 
 Services / Description 
 
Fuel Prices
 
Comments
  
 Aviator Air Flight School
972-988-8609
[web site]
[email]

Like us on facebook
Aviation fuel, Aircraft parking (ramp or tiedown), Passenger terminal and lounge, Pilot school (FAR Part 141), Flight training, ...
 
Courtesy car   Enterprise Rent-A-Car  
 
More info about Aviator Air Flight School
Avfuel
100LL Jet A
FS $3.69 $3.27 
GUARANTEED
 
   2 read write
 City of Grand Prairie
972-237-7591
972-237-7592
[web site]
[email]
Airport management, Aviation fuel, Aircraft parking (ramp or tiedown), Hangar leasing / sales, Pilots lounge / snooze room, Public telephone, Internet access, ...

More info about City of Grand Prairie
Avfuel
100LL Jet A
SS $3.49 $3.12 
GUARANTEED
 
   write
FS=Full service
SS=Self service
Update Fuel Prices
 

Aviation Businesses, Services, and Facilities

  
 Business Name 
 
 Contact 
 
 Services / Description 
 
Distance
 
Comments
  
 J&G Aviation, LLC
817-881-5182
817-304-3520
[web site]
[email]
Aircraft maintenance

More info about J&G Aviation, LLC
on airport  
   write
 

Where to Eat: Catering, Restaurants, Food shops

  
 Business Name 
 
 Contact 
 
 Services / Description 
 
Distance
 
Comments
  
 Radial Engine Cafe
972-595-5420 Restaurant

More info about Radial Engine Cafe
on airport  
   write
 

Would you like to see your business listed on this page?

 If your business provides an interesting product or service to pilots, flight crews, aircraft, or users of the Grand Prairie Municipal Airport, you should consider listing it here.  To start the listing process, click on the button below
 
Add a business
 

Other Pages about Grand Prairie Municipal Airport

www.gptx.org/...
 
Update a link
 
Copyright © AirNav, LLC. All rights reserved. Privacy Policy  Contact